Time,TemperatureF,DewpointF,PressureIn,WindDirection,WindDirectionDegrees,WindSpeedMPH,WindSpeedGustMPH,Humidity,HourlyPrecipIn,Conditions,Clouds,dailyrainin,SoftwareType,DateUTC
2013-03-10 00:01:00,42.0,27.0,-100.00,SE,135,1.0,5.0,54,-99.99,,,-99.99,,2013-03-10 08:01:00,
2013-03-10 00:11:00,42.0,27.0,-100.00,SE,135,1.0,5.0,54,-99.99,,,-99.99,,2013-03-10 08:11:00,
2013-03-10 01:11:00,38.0,29.0,-100.00,NE,55,1.0,6.0,69,-99.99,,,-99.99,,2013-03-10 09:11:00,
2013-03-10 05:11:00,42.0,28.0,-100.00,North,5,3.0,9.0,57,-99.99,,,-99.99,,2013-03-10 12:11:00,
2013-03-10 07:11:00,43.0,28.0,-100.00,ESE,120,1.0,5.0,55,-99.99,,,-99.99,,2013-03-10 14:11:00,
2013-03-10 08:10:00,44.0,28.0,-100.00,North,10,2.0,7.0,53,-99.99,,,-99.99,,2013-03-10 15:10:00,
2013-03-10 10:10:00,47.0,29.0,-100.00,SSE,155,2.0,8.0,49,-99.99,,,-99.99,,2013-03-10 17:10:00,
2013-03-10 11:00:00,52.0,28.0,-100.00,ESE,115,3.0,9.0,39,-99.99,,,-99.99,,2013-03-10 18:00:00,
2013-03-10 11:01:00,47.0,29.0,-100.00,SSE,155,2.0,8.0,49,-99.99,,,-99.99,,2013-03-10 18:01:00,
2013-03-10 12:10:00,57.0,29.0,-100.00,East,95,5.0,9.0,34,-99.99,,,-99.99,,2013-03-10 19:10:00,
2013-03-10 13:02:00,57.0,29.0,-100.00,East,95,5.0,9.0,34,-99.99,,,-99.99,,2013-03-10 20:02:00,
2013-03-10 13:20:00,60.0,31.0,-100.00,ESE,115,3.0,12.0,33,-99.99,,,-99.99,,2013-03-10 20:20:00,
2013-03-10 14:02:00,60.0,31.0,-100.00,ESE,115,3.0,12.0,33,-99.99,,,-99.99,,2013-03-10 21:02:00,
2013-03-10 14:10:00,60.0,33.0,-100.00,SE,125,6.0,13.0,36,-99.99,,,-99.99,,2013-03-10 21:10:00,
2013-03-10 14:12:00,60.0,31.0,-100.00,ESE,115,3.0,12.0,33,-99.99,,,-99.99,,2013-03-10 21:12:00,
2013-03-10 15:02:00,60.0,33.0,-100.00,SE,125,6.0,13.0,36,-99.99,,,-99.99,,2013-03-10 22:02:00,
2013-03-10 16:02:00,60.0,32.0,-100.00,ESE,105,10.0,14.0,34,-99.99,,,-99.99,,2013-03-10 23:02:00,
2013-03-10 16:10:00,58.0,32.0,-100.00,ESE,120,3.0,13.0,37,-99.99,,,-99.99,,2013-03-10 23:10:00,
2013-03-10 16:12:00,60.0,32.0,-100.00,ESE,105,10.0,14.0,34,-99.99,,,-99.99,,2013-03-10 23:12:00,
2013-03-10 17:02:00,58.0,32.0,-100.00,ESE,120,3.0,13.0,37,-99.99,,,-99.99,,2013-03-11 00:02:00,
2013-03-10 18:02:00,56.0,32.0,-100.00,East,85,3.0,9.0,39,-99.99,,,-99.99,,2013-03-11 01:02:00,
2013-03-10 18:12:00,56.0,32.0,-100.00,East,85,3.0,9.0,39,-99.99,,,-99.99,,2013-03-11 01:12:00,
2013-03-10 19:02:00,55.0,32.0,-100.00,ENE,75,3.0,9.0,41,-99.99,,,-99.99,,2013-03-11 02:02:00,
2013-03-10 20:02:00,51.0,32.0,-100.00,NNE,30,2.0,7.0,47,-99.99,,,-99.99,,2013-03-11 03:02:00,
2013-03-10 20:12:00,51.0,32.0,-100.00,NNE,30,2.0,7.0,47,-99.99,,,-99.99,,2013-03-11 03:12:00,
2013-03-10 21:02:00,49.0,32.0,-100.00,SSE,165,1.0,6.0,51,-99.99,,,-99.99,,2013-03-11 04:02:00,
2013-03-10 22:03:00,46.0,33.0,-100.00,SE,135,2.0,5.0,60,-99.99,,,-99.99,,2013-03-11 05:03:00,
2013-03-10 22:12:00,46.0,33.0,-100.00,SE,135,2.0,5.0,60,-99.99,,,-99.99,,2013-03-11 05:12:00,
2013-03-10 23:02:00,43.0,34.0,-100.00,East,95,5.0,6.0,70,-99.99,,,-99.99,,2013-03-11 06:02:00,